Regional Weather Roundup
Issued by NWS New Orleans/Baton Rouge, LA

Home | Current Version | Previous Version | Graphics & Text | Print | Product List | Glossary On
Versions: 1 2 3 4 5 6 7 8 9 10 11 12 13 14 15 16 17 18 19 20 21 22 23 24 25 26 27 28 29 30 31 32 33 34 35 36 37 38 39 40 41 42 43 44 45 46 47 48 49 50
410
ASUS44 KLIX 010305
RWRLIX
NEW ORLEANS REGIONAL WEATHER ROUNDUP
NATIONAL WEATHER SERVICE NEW ORLEANS LA
1000 PM CDT SUN AUG 31 2014

NOTE: "FAIR" INDICATES FEW OR NO CLOUDS BELOW 12,000 FEET WITH NO
      SIGNIFICANT WEATHER AND/OR OBSTRUCTIONS TO VISIBILITY.
      SKY/WX - SKY CONDITION AND SIGNIFICANT WEATHER.
      TMP - AIR TEMPERATURE.     DP    - DEWPOINT TEMPERATURE.
      RH  - RELATIVE HUMIDITY.   PRES  - PRESSURE.
      HI  - HEAT INDEX.          WCI   - WIND CHILL INDEX.

*  THESE STATIONS ARE NOT NWS OR FAA STATIONS AND ARE NOT UNDER
   NWS QUALITY CONTROL.

LAZ038-040-048-061>063-065>067-069-010400-
SOUTHEAST LOUISIANA

CITY           SKY/WX    TMP DP  RH WIND       PRES   REMARKS
N.O. AUDUBON     N/A     85  78  81 MISG        N/A  HX  96
N.O. INTL ARPT MOCLDY    82  75  79 SE6       30.05R
N.O. LAKEFRONT PTCLDY    83  77  82 SE9       30.06R
N.O. DOWNTOWN*   N/A     84  73  70 S5        30.06S
SLIDELL        PTCLDY    81  76  84 SE5       30.06R
BATON ROUGE    MOCLDY    80  73  79 SE5       30.03S
BOOTHVILLE     CLEAR     83  78  85 SE5       30.07R
BELLE CHASSE   PTCLDY    81  75  82 SE7       30.05R
BOGALUSA*        N/A     81  74  79 CALM      30.08R
GALLIANO*      NOT AVBL
NEW ROADS*       N/A     80  75  84 SE3       30.03S
GONZALES*        N/A     78  78 100 CALM      30.04R
HAMMOND*       PTCLDY    81  75  83 CALM      30.07R
HOUMA*         PTCLDY    80  75  85 SE5       30.05R
PORT FOURCHON* NOT AVBL

$$

MSZ070-080>082-010400-
SOUTHERN MISSISSIPPI

CITY           SKY/WX    TMP DP  RH WIND       PRES   REMARKS
MCCOMB         PTCLDY    77  72  84 SE6       30.06S
GULFPORT       PTCLDY    84  74  71 S5        30.07R
BILOXI         PTCLDY    84  75  73 S7        30.08R
PASCAGOULA     CLEAR     75  74  96 CALM      30.08R

$$

COASTAL OBSERVATIONS
LAKE AND NEARSHORE STATIONS

STATION/POSITION TIME  TEMP    WIND        PRES    WAVE
                       AIR SEA DIR/SP/G            HT/PER
                 (UTC) (F)     (DEG/KT/KT) (MB)    (FT/S)
PASCAGOULA       0300   85     150/  5/  8 1018.0
WAVELAND YACHT   0300   85     160/ 10/ 12 1017.6
GRAND ISLE       0300   85 85  130/  8/ 14 1018.4
SOUTHWEST PASS   0300   85 90  130/ 13/ 18 1018.1
NEW CANAL        0300   83 82  150/  4/  6 1018.2
SHELL BEACH      0300   83 81  120/  8/ 10 1018.0

OFFSHORE STATIONS

STATION/POSITION TIME  TEMP    WIND        PRES    WAVE
                       AIR SEA DIR/SP/G            HT/PER
                 (UTC) (F)     (DEG/KT/KT) (MB)    (FT/S)
64 S DAUPHIN ISL 0300   85     130/ 14       N/A

$$




USA.gov is the U.S. government's official web portal to all federal, state and local government web resources and services.